Location: Lake Harris Campground
(43.9775°N, 74.1317°W)
Time: 10:54:59
(UTC-05:00)

ISS - All Passes

Search period start: 20 December 2014 00:00
Search period end: 30 December 2014 00:00
Orbit: 404 x 415 km, 51.6° (Epoch: 20 December)

Date Brightness Start Highest point End Pass type
(mag) Time Alt. Az. Time Alt. Az. Time Alt. Az.
20 Dec - 13:54:16 10° SW 13:57:33 66° SE 14:00:50 10° ENE daylight
20 Dec - 15:31:24 10° W 15:34:21 29° NNW 15:37:17 10° NE daylight
20 Dec - 17:09:02 10° NW 17:11:38 21° N 17:14:14 10° NE visible
20 Dec - 18:45:38 10° NW 18:48:48 43° NNE 18:51:56 10° E visible
20 Dec - 20:22:22 10° WNW 20:25:18 30° SW 20:28:12 10° SSE night (unlit)
21 Dec - 13:03:47 10° SSW 13:06:51 37° SE 13:09:56 10° ENE daylight
21 Dec - 14:40:19 10° W 14:43:26 38° NNW 14:46:34 10° NE daylight
21 Dec - 16:18:03 10° NW 16:20:38 21° N 16:23:13 10° NE daylight
21 Dec - 17:54:55 10° NW 17:57:54 31° NNE 18:00:53 10° E visible
21 Dec - 19:31:24 10° WNW 19:34:37 54° SW 19:37:49 10° SE visible
22 Dec - 12:13:37 10° S 12:16:11 21° SE 12:18:46 10° E daylight
22 Dec - 13:49:17 10° WSW 13:52:32 57° NNW 13:55:48 10° NE daylight
22 Dec - 15:26:55 10° WNW 15:29:36 22° N 15:32:17 10° NE daylight
22 Dec - 17:04:06 10° NW 17:06:55 25° NNE 17:09:42 10° ENE visible
22 Dec - 18:40:32 10° WNW 18:43:50 87° NNE 18:47:06 10° ESE visible
22 Dec - 20:18:23 10° WSW 20:19:58 13° SW 20:21:32 10° SSW night (unlit)
23 Dec - 11:24:09 10° SSE 11:25:32 12° SE 11:26:56 10° ESE daylight
23 Dec - 12:58:20 10° WSW 13:01:39 88° SSE 13:04:58 10° ENE daylight
23 Dec - 14:35:42 10° WNW 14:38:32 26° NNW 14:41:23 10° NE daylight
23 Dec - 16:13:11 10° NW 16:15:51 22° N 16:18:30 10° ENE daylight
23 Dec - 17:49:41 10° NW 17:52:56 53° NNE 17:56:08 10° ESE visible
23 Dec - 19:26:39 10° W 19:29:18 23° SW 19:31:55 10° S visible
24 Dec - 12:07:34 10° SW 12:10:47 50° SE 12:14:00 10° ENE daylight
24 Dec - 13:44:26 10° W 13:47:28 32° NNW 13:50:29 10° NE daylight
24 Dec - 15:22:07 10° NW 15:24:42 21° N 15:27:17 10° NE daylight
24 Dec - 16:58:49 10° NW 17:01:55 36° NNE 17:04:59 10° E visible
24 Dec - 18:35:24 10° WNW 18:38:30 39° SW 18:41:35 10° SSE visible
25 Dec - 11:17:02 10° SSW 11:19:56 28° SE 11:22:49 10° ENE daylight
25 Dec - 12:53:11 10° W 12:56:23 45° NNW 12:59:35 10° NE daylight
25 Dec - 14:30:53 10° WNW 14:33:31 21° N 14:36:08 10° NE daylight
25 Dec - 16:07:53 10° NW 16:10:48 28° NNE 16:13:41 10° ENE daylight
25 Dec - 17:44:19 10° WNW 17:47:36 72° SW 17:50:51 10° SE visible
26 Dec - 10:26:57 10° S 10:29:06 16° SE 10:31:15 10° E daylight
26 Dec - 12:02:01 10° WSW 12:05:19 72° NNW 12:08:37 10° NE daylight
26 Dec - 13:39:32 10° WNW 13:42:17 24° N 13:45:02 10° NE daylight
26 Dec - 15:16:52 10° NW 15:19:36 23° N 15:22:19 10° ENE daylight
26 Dec - 16:53:18 10° NW 16:56:35 68° NNE 16:59:51 10° ESE visible
26 Dec - 18:30:36 10° W 18:32:49 17° SW 18:35:02 10° S visible
27 Dec - 11:10:59 10° SW 11:14:16 67° SE 11:17:33 10° ENE daylight
27 Dec - 12:48:06 10° WNW 12:51:03 29° NNW 12:53:59 10° NE daylight
27 Dec - 14:25:42 10° NW 14:28:19 21° N 14:30:55 10° ENE daylight
27 Dec - 16:02:17 10° NW 16:05:27 43° NNE 16:08:36 10° E daylight
27 Dec - 17:39:00 10° WNW 17:41:55 30° SW 17:44:49 10° SSE visible
28 Dec - 10:20:09 10° SSW 10:23:14 37° SE 10:26:19 10° ENE daylight
28 Dec - 11:56:40 10° W 11:59:48 38° NNW 12:02:55 10° NE daylight
28 Dec - 13:34:23 10° NW 13:36:59 21° N 13:39:34 10° NE daylight
28 Dec - 15:11:13 10° NW 15:14:13 31° NNE 15:17:12 10° E daylight
28 Dec - 16:47:41 10° WNW 16:50:55 53° SW 16:54:06 10° SE daylight
29 Dec - 09:29:38 10° S 09:32:13 21° SE 09:34:49 10° E daylight
29 Dec - 11:05:17 10° WSW 11:08:33 57° NNW 11:11:49 10° NE daylight
29 Dec - 12:42:55 10° WNW 12:45:36 22° N 12:48:16 10° NE daylight
29 Dec - 14:20:04 10° NW 14:22:53 25° NNE 14:25:41 10° ENE daylight
29 Dec - 15:56:28 10° WNW 15:59:47 87° NNE 16:03:03 10° ESE daylight
29 Dec - 17:34:18 10° WSW 17:35:53 13° SW 17:37:27 10° SSW visible
